Home > Weather > Wolfsberg > Past weeks

Flag for Austria Past Weather in Wolfsberg, Carinthia, Austria — Yesterday and Last 2 Weeks

Now
58 °F

Cool.


Feels Like: N/A
Forecast: 54 / 86 °F
Wind: N/A

Location: Klagenfurt-Flughafen

Current Time: Aug 27, 2016 at 5:15:24 AM

Latest Report: Aug 27, 2016 at 4:00 AM


Visibility: 5 mi

Pressure: 30.22 "Hg

Humidity: 93%

Dew Point: 56 °F

Location of WolfsbergLocation

Past Weather in Wolfsberg — Graph

°F

Wolfsberg Temperature Yesterday

Maximum temperature yesterday: 79 °F (at 6:00 PM)
Minimum temperature yesterday: 55 °F (at 7:00 AM)
Average temperature yesterday: 67 °F

High & Low Weather Summary for the Past Weeks

 TemperatureHumidityPressure
High83 °F (Aug 14, 6:00 PM)96% (Aug 16, 3:00 AM)30.41 "Hg (Aug 16, 3:00 AM)
Low45 °F (Aug 12, 6:00 AM)42% (Aug 14, 3:00 PM)29.79 "Hg (Aug 17, 4:00 PM)
Average66 °F75%30.11 "Hg
* Reported Aug 12 4:00 AM — Aug 27 4:00 AM, Wolfsberg, Weather by CustomWeather, © 2016

Note: Actual official high and low records may vary slightly from our data, if they occured in-between our weather recording intervals... More about our weather records

Advertising

Wolfsberg Weather History for the Previous 24 Hours

Scroll right to see more
 ConditionsComfort  
Time TempWeatherWind HumidityBarometerVisibility
4:00 AM
Sat, Aug 27
58 °FCool.N/A93%30.22 "Hg5 mi
3:00 AM59 °FCool.N/A91%30.22 "Hg7 mi
2:00 AM60 °FCool.N/A91%30.21 "Hg10 mi
1:00 AM61 °FCool.N/A88%30.20 "Hg14 mi
12:00 AM62 °FCool.N/A86%30.19 "Hg14 mi
11:00 PM
Fri, Aug 26
64 °FMild.N/A82%30.18 "Hg17 mi
10:00 PM67 °FMild.N/A76%30.16 "Hg22 mi
9:00 PM69 °FClear.N/A68%30.14 "Hg19 mi
8:00 PM73 °FClear.N/A66%30.11 "Hg14 mi
7:00 PM78 °FSunny.N/A49%30.08 "Hg22 mi
6:00 PM79 °FSunny.N/A47%30.08 "Hg19 mi
5:00 PM79 °FPassing clouds.N/A46%30.09 "Hg22 mi
4:00 PM78 °FPassing clouds.N/A47%30.10 "Hg15 mi
3:00 PM77 °FPassing clouds.N/A49%30.11 "Hg12 mi
2:00 PM76 °FPassing clouds.N/A51%30.13 "Hg17 mi
1:00 PM74 °FPassing clouds.N/A57%30.14 "Hg22 mi
12:00 PM72 °FPassing clouds.N/A61%30.16 "Hg9 mi
11:00 AM71 °FPassing clouds.N/A64%30.18 "Hg15 mi
10:00 AM67 °FPassing clouds.N/A72%30.19 "Hg14 mi
9:00 AM63 °FScattered clouds.N/A87%30.21 "Hg11 mi
8:00 AM58 °FScattered clouds.N/A91%30.22 "Hg7 mi
7:00 AM55 °FPassing clouds.N/A96%30.23 "Hg2 mi
6:00 AM55 °FPassing clouds.N/A92%30.23 "Hg6 mi
5:00 AM58 °FPassing clouds.N/A91%30.22 "Hg7 mi
Weather by CustomWeather, © 2016

See weather overviewHow to use our weather pages